Weather History for La Paz, Mexico

Change the Weather History Date:

Friday, October 5, 2012

  Actual Average Record
Temperature  
Mean Temperature 86 °F -  
Max Temperature 100 °F 89 °F 102 °F (2004)
Min Temperature 73 °F 66 °F 68 °F (1996)
Cooling Degree Days 22    
Growing Degree Days 36 (Base 50)    
Moisture  
Dew Point 62 °F    
Average Humidity 47    
Maximum Humidity 83    
Minimum Humidity 19    
Precipitation  
Precipitation 0.00 in - - ()
Sea Level Pressure  
Sea Level Pressure 29.94 in    
Wind  
Wind Speed 4 mph ()    
Max Wind Speed 10 mph    
Max Gust Speed -    
Visibility 10.0 miles    
Events      
Averages and records for this station are not official NWS values.
T = Trace of Precipitation, MM = Missing Value Source: Averaged Metar Reports

Daily Weather History Graph

Daily Weather History Graph

Search for Another Location

Airport:

Trip Planner

Search our weather history database for the weather conditions in past years. The results will help you decide how hot, cold, wet, or windy it might be!

Date:

Astronomy

Oct. 05, 2012 Rise Set
Actual Time 7:15 AM MDT 7:03 PM MDT
Civil Twilight 6:52 AM MDT 7:26 PM MDT
Nautical Twilight 6:26 AM MDT 7:52 PM MDT
Astronomical Twilight 5:59 AM MDT 8:19 PM MDT
Moon 10:59 PM MDT (10/5) 11:56 AM MDT (10/5)
Length of Visible Light 12h 34m
Length of Day
11h 48m
Waning Gibbous, 73% of the Moon is Illuminated
Oct 5
Waning Gibbous
Oct 8
Last Quarter
Oct 15
New
Oct 21
First Quarter
Oct 29
Full

Hourly Weather History & Observations

Time (MDT) Temp. Heat Index Dew Point Humidity Pressure Visibility Wind Dir Wind Speed Gust Speed Precip Events Conditions
2:45 AM 76 °F - 67 °F 66% 29.93 in 2 mi South 2.2 mph - -  
5:50 AM 76 °F - 65 °F 61% 29.94 in 2 mi Calm Calm - -  
6:11 AM 68.0 °F - 62.6 °F 83% 30.00 in 10.0 mi South 6.9 mph - N/A   Clear
6:42 AM 68.0 °F - 60.8 °F 78% 29.96 in 10.0 mi South 4.6 mph - N/A   Clear
7:49 AM 68.0 °F - 60.8 °F 78% 29.96 in 10.0 mi South 9.2 mph - N/A   Clear
8:40 AM 73.4 °F - 62.6 °F 69% 30.02 in 10.0 mi South 4.6 mph - N/A   Clear
8:50 AM 78 °F - 65 °F 56% 29.96 in 12 mi Calm Calm - -  
9:43 AM 82.4 °F 83.4 °F 62.6 °F 51% 29.98 in 10.0 mi South 5.8 mph - N/A   Clear
10:41 AM 89.6 °F 91.1 °F 64.4 °F 43% 29.98 in 10.0 mi South 4.6 mph - N/A   Clear
11:40 AM 93.2 °F 91.3 °F 55.4 °F 28% 30.02 in 10.0 mi Calm Calm - N/A   Clear
11:50 AM 97 °F - 62 °F 22% 29.96 in 19 mi South 2.2 mph - -  
12:42 PM 96.8 °F 94.4 °F 53.6 °F 23% 29.95 in 15.0 mi West 3.5 mph - N/A   Clear
1:44 PM 96.8 °F 94.4 °F 53.6 °F 23% 29.92 in 15.0 mi NNW 10.4 mph - N/A   Clear
2:48 PM 96.8 °F 94.4 °F 53.6 °F 23% 29.96 in 15.0 mi NNW 8.1 mph - N/A   Clear
2:50 PM 99 °F - 60 °F 19% 29.90 in 19 mi NW 8.9 mph - -  
3:42 PM 95.0 °F 92.7 °F 53.6 °F 25% 29.89 in 15.0 mi NNW 6.9 mph - N/A   Clear
4:50 PM 93.2 °F 91.9 °F 57.2 °F 30% 29.88 in 10.0 mi North 9.2 mph - N/A   Clear
5:50 PM 97 °F - 63 °F 23% 29.87 in 2 mi WNW 6.7 mph - -  
5:54 PM 91.4 °F 89.9 °F 57.2 °F 31% 29.98 in 10.0 mi NNW 6.9 mph - N/A   Clear
6:43 PM 89.6 °F 91.1 °F 64.4 °F 43% 29.88 in 10.0 mi NNW 6.9 mph - N/A   Clear
7:49 PM 86.0 °F 90.4 °F 69.8 °F 58% 29.89 in 10.0 mi NNW 6.9 mph - N/A   Clear
8:43 PM 84.2 °F 88.4 °F 69.8 °F 62% 30.01 in 10.0 mi NW 5.8 mph - N/A   Clear
8:50 PM 88 °F - 68 °F 42% 29.90 in 2 mi NW 2.2 mph - -  
9:42 PM 78.8 °F - 68.0 °F 69% 29.92 in 10.0 mi SSE 5.8 mph - N/A   Clear
10:44 PM 75.2 °F - 66.2 °F 73% 29.92 in 10.0 mi South 5.8 mph - N/A   Clear
11:50 PM 81 °F - 60 °F 38% 29.89 in 2 mi SE 2.2 mph - -